Year,Month,Day,Hour,Minute,Value (Times are PST for temperature in C)
2010,07,05,00,00,10.90
2010,07,05,00,01,10.90
2010,07,05,00,02,10.90
2010,07,05,00,03,10.90
2010,07,05,00,04,10.90
2010,07,05,00,05,10.90
2010,07,05,00,06,10.90
2010,07,05,00,07,10.90
2010,07,05,00,08,10.90
2010,07,05,00,09,10.80
2010,07,05,00,10,10.80
2010,07,05,00,11,10.80
2010,07,05,00,12,10.80
2010,07,05,00,13,10.80
2010,07,05,00,14,10.80
2010,07,05,00,15,10.80
2010,07,05,00,16,10.80
2010,07,05,00,17,10.80
2010,07,05,00,18,10.80
2010,07,05,00,19,10.80
2010,07,05,00,20,10.70
2010,07,05,00,21,10.70
2010,07,05,00,22,10.70
2010,07,05,00,23,10.70
2010,07,05,00,24,10.70
2010,07,05,00,25,10.70
2010,07,05,00,26,10.70
2010,07,05,00,27,10.70
2010,07,05,00,28,10.70
2010,07,05,00,29,10.70
2010,07,05,00,30,10.60
2010,07,05,00,31,10.60
2010,07,05,00,32,10.60
2010,07,05,00,33,10.60
2010,07,05,00,34,10.60
2010,07,05,00,35,10.60
2010,07,05,00,36,10.50
2010,07,05,00,37,10.50
2010,07,05,00,38,10.50
2010,07,05,00,39,10.50
2010,07,05,00,40,10.40
2010,07,05,00,41,10.40
2010,07,05,00,42,10.40
2010,07,05,00,43,10.40
2010,07,05,00,44,10.40
2010,07,05,00,45,10.30
2010,07,05,00,46,10.30
2010,07,05,00,47,10.30
2010,07,05,00,48,10.30
2010,07,05,00,49,10.20
2010,07,05,00,50,10.20
2010,07,05,00,51,10.20
2010,07,05,00,52,10.20
2010,07,05,00,53,10.10
2010,07,05,00,54,10.10
2010,07,05,00,55,10.10
2010,07,05,00,56,10.10
2010,07,05,00,57,10.10
2010,07,05,00,58,10.10
2010,07,05,00,59,10.10
2010,07,05,01,00,10.10
2010,07,05,01,01,10.10
2010,07,05,01,02,10.10
2010,07,05,01,03,10.10
2010,07,05,01,04,10.10
2010,07,05,01,05,10.10
2010,07,05,01,06,10.10
2010,07,05,01,07,10.10
2010,07,05,01,08,10.10
2010,07,05,01,09,10.10
2010,07,05,01,10,10.10
2010,07,05,01,11,10.00
2010,07,05,01,12,10.00
2010,07,05,01,13,10.00
2010,07,05,01,14,10.00
2010,07,05,01,15,10.00
2010,07,05,01,16,10.00
2010,07,05,01,17,10.00
2010,07,05,01,18,9.90
2010,07,05,01,19,9.90
2010,07,05,01,20,9.90
2010,07,05,01,21,9.90
2010,07,05,01,22,9.90
2010,07,05,01,23,9.90
2010,07,05,01,24,9.90
2010,07,05,01,25,9.90
2010,07,05,01,26,9.90
2010,07,05,01,27,9.90
2010,07,05,01,28,9.90
2010,07,05,01,29,9.90
2010,07,05,01,30,9.90
2010,07,05,01,31,9.90
2010,07,05,01,32,9.90
2010,07,05,01,33,9.90
2010,07,05,01,34,9.90
2010,07,05,01,35,9.90
2010,07,05,01,36,9.90
2010,07,05,01,37,9.90
2010,07,05,01,38,9.90
2010,07,05,01,39,9.80
2010,07,05,01,40,9.80
2010,07,05,01,41,9.80
2010,07,05,01,42,9.80
2010,07,05,01,43,9.80
2010,07,05,01,44,9.80
2010,07,05,01,45,9.80
2010,07,05,01,46,9.80
2010,07,05,01,47,9.80
2010,07,05,01,48,9.80
2010,07,05,01,49,9.80
2010,07,05,01,50,9.80
2010,07,05,01,51,9.80
2010,07,05,01,52,9.80
2010,07,05,01,53,9.80
2010,07,05,01,54,9.80
2010,07,05,01,55,9.80
2010,07,05,01,56,9.80
2010,07,05,01,57,9.80
2010,07,05,01,58,9.70
2010,07,05,01,59,9.70
2010,07,05,02,00,9.70
2010,07,05,02,01,9.70
2010,07,05,02,02,9.70
2010,07,05,02,03,9.70
2010,07,05,02,04,9.70
2010,07,05,02,05,9.70
2010,07,05,02,06,9.70
2010,07,05,02,07,9.70
2010,07,05,02,08,9.70
2010,07,05,02,09,9.70
2010,07,05,02,10,9.70
2010,07,05,02,11,9.70
2010,07,05,02,12,9.70
2010,07,05,02,13,9.70
2010,07,05,02,14,9.70
2010,07,05,02,15,9.70
2010,07,05,02,16,9.70
2010,07,05,02,17,9.70
2010,07,05,02,18,9.70
2010,07,05,02,19,9.70
2010,07,05,02,20,9.70
2010,07,05,02,21,9.70
2010,07,05,02,22,9.70
2010,07,05,02,23,9.70
2010,07,05,02,24,9.70
2010,07,05,02,25,9.70
2010,07,05,02,26,9.70
2010,07,05,02,27,9.70
2010,07,05,02,28,9.70
2010,07,05,02,29,9.70
2010,07,05,02,30,9.70
2010,07,05,02,31,9.70
2010,07,05,02,32,9.70
2010,07,05,02,33,9.70
2010,07,05,02,34,9.70
2010,07,05,02,35,9.70
2010,07,05,02,36,9.70
2010,07,05,02,37,9.70
2010,07,05,02,38,9.70
2010,07,05,02,39,9.70
2010,07,05,02,40,9.70
2010,07,05,02,41,9.60
2010,07,05,02,42,9.60
2010,07,05,02,43,9.70
2010,07,05,02,44,9.60
2010,07,05,02,45,9.60
2010,07,05,02,46,9.60
2010,07,05,02,47,9.60
2010,07,05,02,48,9.60
2010,07,05,02,49,9.70
2010,07,05,02,50,9.70
2010,07,05,02,51,9.70
2010,07,05,02,52,9.70
2010,07,05,02,53,9.70
2010,07,05,02,54,9.70
2010,07,05,02,55,9.70
2010,07,05,02,56,9.70
2010,07,05,02,57,9.70
2010,07,05,02,58,9.70
2010,07,05,02,59,9.70
2010,07,05,03,00,9.70
2010,07,05,03,01,9.70
2010,07,05,03,02,9.70
2010,07,05,03,03,9.70
2010,07,05,03,06,9.60
2010,07,05,03,07,9.60
2010,07,05,03,08,9.60
2010,07,05,03,09,9.60
2010,07,05,03,10,9.60
2010,07,05,03,11,9.60
2010,07,05,03,12,9.50
2010,07,05,03,13,9.50
2010,07,05,03,14,9.50
2010,07,05,03,15,9.50
2010,07,05,03,16,9.50
2010,07,05,03,17,9.50
2010,07,05,03,18,9.50
2010,07,05,03,19,9.50
2010,07,05,03,20,9.40
2010,07,05,03,21,9.40
2010,07,05,03,22,9.40
2010,07,05,03,23,9.40
2010,07,05,03,24,9.40
2010,07,05,03,25,9.40
2010,07,05,03,26,9.40
2010,07,05,03,27,9.30
2010,07,05,03,28,9.30
2010,07,05,03,29,9.30
2010,07,05,03,30,9.30
2010,07,05,03,31,9.30
2010,07,05,03,32,9.20
2010,07,05,03,33,9.20
2010,07,05,03,34,9.20
2010,07,05,03,35,9.20
2010,07,05,03,36,9.20
2010,07,05,03,37,9.30
2010,07,05,03,38,9.30
2010,07,05,03,39,9.30
2010,07,05,03,40,9.30
2010,07,05,03,41,9.30
2010,07,05,03,42,9.30
2010,07,05,03,43,9.30
2010,07,05,03,44,9.40
2010,07,05,03,45,9.40
2010,07,05,03,46,9.50
2010,07,05,03,47,9.50
2010,07,05,03,48,9.50
2010,07,05,03,49,9.50
2010,07,05,03,50,9.40
2010,07,05,03,51,9.40
2010,07,05,03,52,9.40
2010,07,05,03,53,9.40
2010,07,05,03,54,9.40
2010,07,05,03,55,9.30
2010,07,05,03,56,9.30
2010,07,05,03,57,9.30
2010,07,05,03,58,9.30
2010,07,05,03,59,9.20
2010,07,05,04,00,9.20
2010,07,05,04,01,9.20
2010,07,05,04,02,9.20
2010,07,05,04,03,9.20
2010,07,05,04,04,9.20
2010,07,05,04,05,9.10
2010,07,05,04,06,9.10
2010,07,05,04,07,9.10
2010,07,05,04,08,9.10
2010,07,05,04,09,9.00
2010,07,05,04,10,9.00
2010,07,05,04,11,9.00
2010,07,05,04,12,9.00
2010,07,05,04,13,9.00
2010,07,05,04,14,8.90
2010,07,05,04,15,8.90
2010,07,05,04,16,8.90
2010,07,05,04,17,8.90
2010,07,05,04,18,8.90
2010,07,05,04,19,8.90
2010,07,05,04,20,8.90
2010,07,05,04,21,8.90
2010,07,05,04,22,8.90
2010,07,05,04,23,8.90
2010,07,05,04,24,8.90
2010,07,05,04,25,8.90
2010,07,05,04,26,8.90
2010,07,05,04,27,8.90
2010,07,05,04,28,8.90
2010,07,05,04,29,8.90
2010,07,05,04,30,8.90
2010,07,05,04,31,8.90
2010,07,05,04,32,8.90
2010,07,05,04,33,8.90
2010,07,05,04,34,8.90
2010,07,05,04,35,8.90
2010,07,05,04,36,8.90
2010,07,05,04,37,8.90
2010,07,05,04,38,8.90
2010,07,05,04,39,8.90
2010,07,05,04,40,8.90
2010,07,05,04,41,8.90
2010,07,05,04,42,8.90
2010,07,05,04,43,8.90
2010,07,05,04,44,8.80
2010,07,05,04,45,8.80
2010,07,05,04,46,8.80
2010,07,05,04,47,8.80
2010,07,05,04,48,8.70
2010,07,05,04,49,8.70
2010,07,05,04,50,8.70
2010,07,05,04,51,8.70
2010,07,05,04,52,8.70
2010,07,05,04,53,8.70
2010,07,05,04,54,8.70
2010,07,05,04,55,8.70
2010,07,05,04,56,8.70
2010,07,05,04,57,8.70
2010,07,05,04,58,8.70
2010,07,05,04,59,8.70
2010,07,05,05,00,8.70
2010,07,05,05,01,8.70
2010,07,05,05,02,8.70
2010,07,05,05,03,8.70
2010,07,05,05,04,8.70
2010,07,05,05,05,8.70
2010,07,05,05,06,8.70
2010,07,05,05,07,8.70
2010,07,05,05,08,8.70
2010,07,05,05,09,8.70
2010,07,05,05,10,8.70
2010,07,05,05,11,8.70
2010,07,05,05,12,8.70
2010,07,05,05,13,8.70
2010,07,05,05,14,8.70
2010,07,05,05,15,8.70
2010,07,05,05,16,8.70
2010,07,05,05,17,8.70
2010,07,05,05,18,8.70
2010,07,05,05,19,8.70
2010,07,05,05,20,8.70
2010,07,05,05,21,8.70
2010,07,05,05,22,8.70
2010,07,05,05,23,8.70
2010,07,05,05,24,8.70
2010,07,05,05,25,8.70
2010,07,05,05,26,8.70
2010,07,05,05,27,8.70
2010,07,05,05,28,8.70
2010,07,05,05,29,8.70
2010,07,05,05,30,8.80
2010,07,05,05,31,8.80
2010,07,05,05,32,8.80
2010,07,05,05,33,8.80
2010,07,05,05,34,8.80
2010,07,05,05,35,8.80
2010,07,05,05,36,8.80
2010,07,05,05,37,8.80
2010,07,05,05,38,8.80
2010,07,05,05,39,8.90
2010,07,05,05,40,8.90
2010,07,05,05,41,8.90
2010,07,05,05,42,8.90
2010,07,05,05,43,8.90
2010,07,05,05,44,8.90
2010,07,05,05,45,8.90
2010,07,05,05,46,8.90
2010,07,05,05,47,8.90
2010,07,05,05,48,8.90
2010,07,05,05,49,8.90
2010,07,05,05,50,8.90
2010,07,05,05,51,8.90
2010,07,05,05,52,8.90
2010,07,05,05,53,8.90
2010,07,05,05,54,8.90
2010,07,05,05,55,8.90
2010,07,05,05,56,9.00
2010,07,05,05,57,9.00
2010,07,05,05,58,9.00
2010,07,05,05,59,9.00
2010,07,05,06,00,9.10
2010,07,05,06,01,9.10
2010,07,05,06,02,9.10
2010,07,05,06,03,9.10
2010,07,05,06,04,9.20
2010,07,05,06,05,9.20
2010,07,05,06,06,9.20
2010,07,05,06,07,9.20
2010,07,05,06,08,9.30
2010,07,05,06,09,9.30
2010,07,05,06,10,9.30
2010,07,05,06,11,9.30
2010,07,05,06,12,9.40
2010,07,05,06,13,9.40
2010,07,05,06,14,9.40
2010,07,05,06,15,9.40
2010,07,05,06,16,9.50
2010,07,05,06,17,9.50
2010,07,05,06,18,9.60
2010,07,05,06,19,9.60
2010,07,05,06,20,9.60
2010,07,05,06,21,9.70
2010,07,05,06,22,9.70
2010,07,05,06,23,9.70
2010,07,05,06,24,9.70
2010,07,05,06,25,9.80
2010,07,05,06,26,9.80
2010,07,05,06,27,9.80
2010,07,05,06,28,9.80
2010,07,05,06,29,9.80
2010,07,05,06,30,9.80
2010,07,05,06,31,9.80
2010,07,05,06,32,9.80
2010,07,05,06,33,9.80
2010,07,05,06,34,9.80
2010,07,05,06,35,9.90
2010,07,05,06,36,9.90
2010,07,05,06,37,9.90
2010,07,05,06,38,9.90
2010,07,05,06,39,10.00
2010,07,05,06,40,10.00
2010,07,05,06,41,10.00
2010,07,05,06,42,10.10
2010,07,05,06,43,10.10
2010,07,05,06,44,10.20
2010,07,05,06,45,10.20
2010,07,05,06,46,10.20
2010,07,05,06,47,10.30
2010,07,05,06,48,10.30
2010,07,05,06,49,10.40
2010,07,05,06,50,10.40
2010,07,05,06,51,10.40
2010,07,05,06,52,10.50
2010,07,05,06,53,10.50
2010,07,05,06,54,10.50
2010,07,05,06,55,10.60
2010,07,05,06,56,10.60
2010,07,05,06,57,10.70
2010,07,05,06,58,10.70
2010,07,05,06,59,10.80
2010,07,05,07,00,10.90
2010,07,05,07,01,11.00
2010,07,05,07,02,11.00
2010,07,05,07,03,11.10
2010,07,05,07,04,11.10
2010,07,05,07,05,11.20
2010,07,05,07,06,11.20
2010,07,05,07,07,11.20
2010,07,05,07,08,11.20
2010,07,05,07,09,11.20
2010,07,05,07,10,11.20
2010,07,05,07,11,11.20
2010,07,05,07,12,11.10
2010,07,05,07,13,11.10
2010,07,05,07,14,11.10
2010,07,05,07,15,11.00
2010,07,05,07,16,11.00
2010,07,05,07,17,10.90
2010,07,05,07,18,10.90
2010,07,05,07,19,10.90
2010,07,05,07,20,10.80
2010,07,05,07,21,10.80
2010,07,05,07,22,10.80
2010,07,05,07,23,10.80
2010,07,05,07,24,10.80
2010,07,05,07,25,10.70
2010,07,05,07,26,10.70
2010,07,05,07,27,10.70
2010,07,05,07,28,10.70
2010,07,05,07,29,10.70
2010,07,05,07,30,10.70
2010,07,05,07,31,10.70
2010,07,05,07,32,10.80
2010,07,05,07,33,10.80
2010,07,05,07,34,10.80
2010,07,05,07,35,10.80
2010,07,05,07,36,10.80
2010,07,05,07,37,10.80
2010,07,05,07,38,10.90
2010,07,05,07,39,10.90
2010,07,05,07,40,10.90
2010,07,05,07,41,11.00
2010,07,05,07,42,11.00
2010,07,05,07,43,11.10
2010,07,05,07,44,11.20
2010,07,05,07,45,11.20
2010,07,05,07,46,11.20
2010,07,05,07,47,11.30
2010,07,05,07,48,11.30
2010,07,05,07,49,11.30
2010,07,05,07,50,11.40
2010,07,05,07,51,11.40
2010,07,05,07,52,11.40
2010,07,05,07,53,11.40
2010,07,05,07,54,11.40
2010,07,05,07,55,11.40
2010,07,05,07,56,11.40
2010,07,05,07,57,11.40
2010,07,05,07,58,11.40
2010,07,05,07,59,11.40
2010,07,05,08,00,11.40
2010,07,05,08,01,11.40
2010,07,05,08,02,11.40
2010,07,05,08,03,11.40
2010,07,05,08,04,11.40
2010,07,05,08,05,11.40
2010,07,05,08,06,11.50
2010,07,05,08,07,11.50
2010,07,05,08,08,11.50
2010,07,05,08,09,11.50
2010,07,05,08,10,11.50
2010,07,05,08,11,11.60
2010,07,05,08,12,11.60
2010,07,05,08,13,11.60
2010,07,05,08,14,11.60
2010,07,05,08,15,11.70
2010,07,05,08,16,11.70
2010,07,05,08,17,11.70
2010,07,05,08,18,11.70
2010,07,05,08,19,11.70
2010,07,05,08,20,11.70
2010,07,05,08,21,11.70
2010,07,05,08,22,11.80
2010,07,05,08,23,11.80
2010,07,05,08,24,11.80
2010,07,05,08,25,11.80
2010,07,05,08,26,11.80
2010,07,05,08,27,11.80
2010,07,05,08,28,11.80
2010,07,05,08,29,11.80
2010,07,05,08,30,11.90
2010,07,05,08,31,11.90
2010,07,05,08,32,11.90
2010,07,05,08,33,11.90
2010,07,05,08,34,11.90
2010,07,05,08,35,11.90
2010,07,05,08,36,11.90
2010,07,05,08,37,11.90
2010,07,05,08,38,11.90
2010,07,05,08,39,11.90
2010,07,05,08,40,11.90
2010,07,05,08,41,12.00
2010,07,05,08,42,12.00
2010,07,05,08,43,12.00
2010,07,05,08,44,12.00
2010,07,05,08,45,12.00
2010,07,05,08,46,12.00
2010,07,05,08,47,12.00
2010,07,05,08,48,12.00
2010,07,05,08,49,12.00
2010,07,05,08,50,12.00
2010,07,05,08,51,12.10
2010,07,05,08,52,12.10
2010,07,05,08,53,12.10
2010,07,05,08,54,12.10
2010,07,05,08,55,12.10
2010,07,05,08,56,12.10
2010,07,05,08,57,12.10
2010,07,05,08,58,12.10
2010,07,05,08,59,12.10
2010,07,05,09,00,12.10
2010,07,05,09,01,12.10
2010,07,05,09,02,12.10
2010,07,05,09,03,12.10
2010,07,05,09,04,12.10
2010,07,05,09,05,12.10
2010,07,05,09,06,12.10
2010,07,05,09,07,12.10
2010,07,05,09,08,12.10
2010,07,05,09,09,12.20
2010,07,05,09,10,12.20
2010,07,05,09,11,12.20
2010,07,05,09,12,12.30
2010,07,05,09,13,12.30
2010,07,05,09,14,12.30
2010,07,05,09,15,12.30
2010,07,05,09,16,12.40
2010,07,05,09,17,12.50
2010,07,05,09,18,12.60
2010,07,05,09,19,12.60
2010,07,05,09,20,12.60
2010,07,05,09,21,12.50
2010,07,05,09,22,12.50
2010,07,05,09,23,12.50
2010,07,05,09,24,12.60
2010,07,05,09,25,12.70
2010,07,05,09,26,12.80
2010,07,05,09,27,12.80
2010,07,05,09,28,12.90
2010,07,05,09,29,13.10
2010,07,05,09,30,13.20
2010,07,05,09,31,13.20
2010,07,05,09,32,13.30
2010,07,05,09,33,13.40
2010,07,05,09,34,13.40
2010,07,05,09,35,13.40
2010,07,05,09,36,13.40
2010,07,05,09,37,13.40
2010,07,05,09,38,13.50
2010,07,05,09,39,13.50
2010,07,05,09,40,13.50
2010,07,05,09,41,13.60
2010,07,05,09,42,13.70
2010,07,05,09,43,13.80
2010,07,05,09,44,13.80
2010,07,05,09,45,13.80
2010,07,05,09,46,13.70
2010,07,05,09,47,13.70
2010,07,05,09,48,13.80
2010,07,05,09,49,13.90
2010,07,05,09,50,14.00
2010,07,05,09,51,14.10
2010,07,05,09,52,14.10
2010,07,05,09,53,14.20
2010,07,05,09,54,14.10
2010,07,05,09,55,14.10
2010,07,05,09,56,14.10
2010,07,05,09,57,14.10
2010,07,05,09,58,14.10
2010,07,05,09,59,14.10
2010,07,05,10,00,14.10
2010,07,05,10,01,14.10
2010,07,05,10,02,14.10
2010,07,05,10,03,14.10
2010,07,05,10,04,14.10
2010,07,05,10,05,14.10
2010,07,05,10,06,14.10
2010,07,05,10,07,14.10
2010,07,05,10,08,14.10
2010,07,05,10,09,14.10
2010,07,05,10,10,14.00
2010,07,05,10,11,13.90
2010,07,05,10,12,13.90
2010,07,05,10,13,13.90
2010,07,05,10,14,14.00
2010,07,05,10,15,14.00
2010,07,05,10,16,14.10
2010,07,05,10,17,14.10
2010,07,05,10,18,14.10
2010,07,05,10,19,14.10
2010,07,05,10,20,14.10
2010,07,05,10,21,14.10
2010,07,05,10,22,14.20
2010,07,05,10,23,14.30
2010,07,05,10,24,14.30
2010,07,05,10,25,14.40
2010,07,05,10,26,14.40
2010,07,05,10,27,14.40
2010,07,05,10,28,14.40
2010,07,05,10,29,14.30
2010,07,05,10,30,14.30
2010,07,05,10,31,14.40
2010,07,05,10,32,14.40
2010,07,05,10,33,14.50
2010,07,05,10,34,14.60
2010,07,05,10,35,14.60
2010,07,05,10,36,14.70
2010,07,05,10,37,14.70
2010,07,05,10,38,14.70
2010,07,05,10,39,14.60
2010,07,05,10,40,14.50
2010,07,05,10,41,14.40
2010,07,05,10,42,14.30
2010,07,05,10,43,14.20
2010,07,05,10,44,14.20
2010,07,05,10,45,14.10
2010,07,05,10,46,14.00
2010,07,05,10,47,13.90
2010,07,05,10,48,13.80
2010,07,05,10,49,13.70
2010,07,05,10,50,13.70
2010,07,05,10,51,13.60
2010,07,05,10,52,13.60
2010,07,05,10,53,13.60
2010,07,05,10,54,13.50
2010,07,05,10,55,13.40
2010,07,05,10,56,13.40
2010,07,05,10,57,13.40
2010,07,05,10,58,13.40
2010,07,05,10,59,13.50
2010,07,05,11,00,13.50
2010,07,05,11,01,13.60
2010,07,05,11,02,13.70
2010,07,05,11,03,13.70
2010,07,05,11,04,13.80
2010,07,05,11,05,13.80
2010,07,05,11,06,13.80
2010,07,05,11,07,13.90
2010,07,05,11,08,14.00
2010,07,05,11,09,14.10
2010,07,05,11,10,14.20
2010,07,05,11,11,14.10
2010,07,05,11,12,14.10
2010,07,05,11,13,14.00
2010,07,05,11,14,13.90
2010,07,05,11,15,13.80
2010,07,05,11,16,13.80
2010,07,05,11,17,13.70
2010,07,05,11,18,13.70
2010,07,05,11,19,13.70
2010,07,05,11,20,13.80
2010,07,05,11,21,13.90
2010,07,05,11,22,14.00
2010,07,05,11,23,14.10
2010,07,05,11,24,14.10
2010,07,05,11,25,14.10
2010,07,05,11,26,14.00
2010,07,05,11,27,13.90
2010,07,05,11,28,13.80
2010,07,05,11,29,13.80
2010,07,05,11,30,13.70
2010,07,05,11,31,13.70
2010,07,05,11,32,13.70
2010,07,05,11,33,13.60
2010,07,05,11,34,13.60
2010,07,05,11,35,13.60
2010,07,05,11,36,13.60
2010,07,05,11,37,13.60
2010,07,05,11,38,13.50
2010,07,05,11,39,13.50
2010,07,05,11,40,13.40
2010,07,05,11,41,13.40
2010,07,05,11,42,13.40
2010,07,05,11,43,13.40
2010,07,05,11,44,13.30
2010,07,05,11,45,13.30
2010,07,05,11,46,13.30
2010,07,05,11,47,13.30
2010,07,05,11,48,13.30
2010,07,05,11,49,13.30
2010,07,05,11,50,13.20
2010,07,05,11,51,13.10
2010,07,05,11,52,13.00
2010,07,05,11,53,13.00
2010,07,05,11,54,12.90
2010,07,05,11,55,12.80
2010,07,05,11,56,12.80
2010,07,05,11,57,12.80
2010,07,05,11,58,12.90
2010,07,05,11,59,12.90
2010,07,05,12,00,13.00
2010,07,05,12,01,13.00
2010,07,05,12,02,13.10
2010,07,05,12,03,13.20
2010,07,05,12,04,13.20
2010,07,05,12,05,13.20
2010,07,05,12,06,13.20
2010,07,05,12,07,13.20
2010,07,05,12,08,13.20
2010,07,05,12,09,13.20
2010,07,05,12,10,13.20
2010,07,05,12,11,13.20
2010,07,05,12,12,13.10
2010,07,05,12,13,13.10
2010,07,05,12,14,13.00
2010,07,05,12,15,12.90
2010,07,05,12,16,12.90
2010,07,05,12,17,12.90
2010,07,05,12,18,13.00
2010,07,05,12,19,13.00
2010,07,05,12,20,13.10
2010,07,05,12,21,13.10
2010,07,05,12,22,13.10
2010,07,05,12,23,13.10
2010,07,05,12,24,13.10
2010,07,05,12,25,13.10
2010,07,05,12,26,13.10
2010,07,05,12,27,13.10
2010,07,05,12,28,13.10
2010,07,05,12,29,13.10
2010,07,05,12,30,13.10
2010,07,05,12,31,13.10
2010,07,05,12,32,13.10
2010,07,05,12,33,13.20
2010,07,05,12,34,13.20
2010,07,05,12,35,13.20
2010,07,05,12,36,13.20
2010,07,05,12,37,13.20
2010,07,05,12,38,13.20
2010,07,05,12,39,13.20
2010,07,05,12,40,13.20
2010,07,05,12,41,13.20
2010,07,05,12,42,13.30
2010,07,05,12,43,13.30
2010,07,05,12,44,13.30
2010,07,05,12,45,13.40
2010,07,05,12,46,13.40
2010,07,05,12,47,13.50
2010,07,05,12,48,13.50
2010,07,05,12,49,13.60
2010,07,05,12,50,13.70
2010,07,05,12,51,13.70
2010,07,05,12,52,13.70
2010,07,05,12,53,13.80
2010,07,05,12,54,13.80
2010,07,05,12,55,13.80
2010,07,05,12,56,13.80
2010,07,05,12,57,13.90
2010,07,05,12,58,13.90
2010,07,05,12,59,13.90
2010,07,05,13,00,13.90
2010,07,05,13,01,13.90
2010,07,05,13,02,13.90
2010,07,05,13,03,14.00
2010,07,05,13,04,14.10
2010,07,05,13,05,14.20
2010,07,05,13,06,14.20
2010,07,05,13,07,14.10
2010,07,05,13,08,14.00
2010,07,05,13,09,13.90
2010,07,05,13,10,13.90
2010,07,05,13,11,13.90
2010,07,05,13,12,13.90
2010,07,05,13,13,13.80
2010,07,05,13,14,13.80
2010,07,05,13,15,13.70
2010,07,05,13,16,13.70
2010,07,05,13,17,13.70
2010,07,05,13,18,13.70
2010,07,05,13,19,13.70
2010,07,05,13,20,13.70
2010,07,05,13,21,13.70
2010,07,05,13,22,13.80
2010,07,05,13,23,13.80
2010,07,05,13,24,13.90
2010,07,05,13,25,13.90
2010,07,05,13,26,14.00
2010,07,05,13,27,14.00
2010,07,05,13,28,13.90
2010,07,05,13,29,13.90
2010,07,05,13,30,13.90
2010,07,05,13,31,13.90
2010,07,05,13,32,13.90
2010,07,05,13,33,13.90
2010,07,05,13,34,13.90
2010,07,05,13,35,13.90
2010,07,05,13,36,13.90
2010,07,05,13,37,13.90
2010,07,05,13,38,14.00
2010,07,05,13,39,14.00
2010,07,05,13,40,14.10
2010,07,05,13,41,14.20
2010,07,05,13,42,14.30
2010,07,05,13,43,14.30
2010,07,05,13,44,14.30
2010,07,05,13,45,14.20
2010,07,05,13,46,14.20
2010,07,05,13,47,14.10
2010,07,05,13,48,14.00
2010,07,05,13,49,14.00
2010,07,05,13,50,13.90
2010,07,05,13,51,14.00
2010,07,05,13,52,13.90
2010,07,05,13,53,14.00
2010,07,05,13,54,14.10
2010,07,05,13,55,14.10
2010,07,05,13,56,14.20
2010,07,05,13,57,14.30
2010,07,05,13,58,14.40
2010,07,05,13,59,14.40
2010,07,05,14,00,14.50
2010,07,05,14,01,14.60
2010,07,05,14,02,14.70
2010,07,05,14,03,14.80
2010,07,05,14,04,15.00
2010,07,05,14,05,15.10
2010,07,05,14,06,15.10
2010,07,05,14,07,15.00
2010,07,05,14,08,14.90
2010,07,05,14,09,14.90
2010,07,05,14,10,14.80
2010,07,05,14,11,14.90
2010,07,05,14,12,14.90
2010,07,05,14,13,15.00
2010,07,05,14,14,15.20
2010,07,05,14,15,15.40
2010,07,05,14,16,15.50
2010,07,05,14,17,15.70
2010,07,05,14,18,15.90
2010,07,05,14,19,16.00
2010,07,05,14,20,16.00
2010,07,05,14,21,16.10
2010,07,05,14,22,16.10
2010,07,05,14,23,16.10
2010,07,05,14,24,16.10
2010,07,05,14,25,16.00
2010,07,05,14,26,16.00
2010,07,05,14,27,16.00
2010,07,05,14,28,16.00
2010,07,05,14,29,16.00
2010,07,05,14,30,16.10
2010,07,05,14,31,16.10
2010,07,05,14,32,16.20
2010,07,05,14,33,16.30
2010,07,05,14,34,16.30
2010,07,05,14,35,16.40
2010,07,05,14,36,16.40
2010,07,05,14,37,16.40
2010,07,05,14,38,16.40
2010,07,05,14,39,16.40
2010,07,05,14,40,16.40
2010,07,05,14,41,16.40
2010,07,05,14,42,16.50
2010,07,05,14,43,16.50
2010,07,05,14,44,16.50
2010,07,05,14,45,16.50
2010,07,05,14,46,16.40
2010,07,05,14,47,16.40
2010,07,05,14,48,16.50
2010,07,05,14,49,16.50
2010,07,05,14,50,16.60
2010,07,05,14,51,16.60
2010,07,05,14,52,16.70
2010,07,05,14,53,16.60
2010,07,05,14,54,16.60
2010,07,05,14,55,16.60
2010,07,05,14,56,16.60
2010,07,05,14,57,16.70
2010,07,05,14,58,16.70
2010,07,05,14,59,16.70
2010,07,05,15,00,16.80
2010,07,05,15,01,16.80
2010,07,05,15,02,16.90
2010,07,05,15,03,16.80
2010,07,05,15,04,16.90
2010,07,05,15,05,16.90
2010,07,05,15,06,17.00
2010,07,05,15,07,17.00
2010,07,05,15,08,17.00
2010,07,05,15,09,17.10
2010,07,05,15,10,17.10
2010,07,05,15,11,17.00
2010,07,05,15,12,17.00
2010,07,05,15,13,16.90
2010,07,05,15,14,16.90
2010,07,05,15,15,16.90
2010,07,05,15,16,16.80
2010,07,05,15,17,16.90
2010,07,05,15,18,16.90
2010,07,05,15,19,16.80
2010,07,05,15,20,16.80
2010,07,05,15,21,16.80
2010,07,05,15,22,16.80
2010,07,05,15,23,16.90
2010,07,05,15,24,17.00
2010,07,05,15,25,17.10
2010,07,05,15,26,17.20
2010,07,05,15,27,17.30
2010,07,05,15,28,17.30
2010,07,05,15,29,17.20
2010,07,05,15,30,17.30
2010,07,05,15,31,17.20
2010,07,05,15,32,17.20
2010,07,05,15,33,17.30
2010,07,05,15,34,17.40
2010,07,05,15,35,17.40
2010,07,05,15,36,17.40
2010,07,05,15,37,17.40
2010,07,05,15,38,17.40
2010,07,05,15,39,17.30
2010,07,05,15,40,17.30
2010,07,05,15,41,17.20
2010,07,05,15,42,17.30
2010,07,05,15,43,17.20
2010,07,05,15,44,17.20
2010,07,05,15,45,17.10
2010,07,05,15,46,17.00
2010,07,05,15,47,17.10
2010,07,05,15,48,17.10
2010,07,05,15,49,17.20
2010,07,05,15,50,17.30
2010,07,05,15,51,17.30
2010,07,05,15,52,17.30
2010,07,05,15,53,17.40
2010,07,05,15,54,17.50
2010,07,05,15,55,17.60
2010,07,05,15,56,17.50
2010,07,05,15,57,17.40
2010,07,05,15,58,17.30
2010,07,05,15,59,17.30
2010,07,05,16,00,17.40
2010,07,05,16,01,17.50
2010,07,05,16,02,17.60
2010,07,05,16,03,17.60
2010,07,05,16,04,17.70
2010,07,05,16,05,17.70
2010,07,05,16,06,17.60
2010,07,05,16,07,17.60
2010,07,05,16,08,17.50
2010,07,05,16,09,17.40
2010,07,05,16,10,17.50
2010,07,05,16,11,17.60
2010,07,05,16,12,17.70
2010,07,05,16,13,17.80
2010,07,05,16,14,17.80
2010,07,05,16,15,17.80
2010,07,05,16,16,17.70
2010,07,05,16,17,17.60
2010,07,05,16,18,17.60
2010,07,05,16,19,17.70
2010,07,05,16,20,17.70
2010,07,05,16,21,17.70
2010,07,05,16,22,17.80
2010,07,05,16,23,17.80
2010,07,05,16,24,17.90
2010,07,05,16,25,17.90
2010,07,05,16,26,18.00
2010,07,05,16,27,17.90
2010,07,05,16,28,17.80
2010,07,05,16,29,17.70
2010,07,05,16,30,17.70
2010,07,05,16,31,17.70
2010,07,05,16,32,17.80
2010,07,05,16,33,17.80
2010,07,05,16,34,17.90
2010,07,05,16,35,17.90
2010,07,05,16,36,17.90
2010,07,05,16,37,17.90
2010,07,05,16,38,18.00
2010,07,05,16,39,17.90
2010,07,05,16,40,17.90
2010,07,05,16,41,17.80
2010,07,05,16,42,17.80
2010,07,05,16,43,17.70
2010,07,05,16,44,17.50
2010,07,05,16,45,17.40
2010,07,05,16,46,17.30
2010,07,05,16,47,17.30
2010,07,05,16,48,17.30
2010,07,05,16,49,17.20
2010,07,05,16,50,17.20
2010,07,05,16,51,17.30
2010,07,05,16,52,17.30
2010,07,05,16,53,17.40
2010,07,05,16,54,17.40
2010,07,05,16,55,17.40
2010,07,05,16,56,17.40
2010,07,05,16,57,17.30
2010,07,05,16,58,17.30
2010,07,05,16,59,17.30
2010,07,05,17,00,17.40
2010,07,05,17,01,17.40
2010,07,05,17,02,17.50
2010,07,05,17,03,17.60
2010,07,05,17,04,17.60
2010,07,05,17,05,17.60
2010,07,05,17,06,17.50
2010,07,05,17,07,17.50
2010,07,05,17,08,17.50
2010,07,05,17,09,17.50
2010,07,05,17,10,17.50
2010,07,05,17,11,17.50
2010,07,05,17,12,17.50
2010,07,05,17,13,17.50
2010,07,05,17,14,17.60
2010,07,05,17,15,17.70
2010,07,05,17,16,17.70
2010,07,05,17,17,17.80
2010,07,05,17,18,17.90
2010,07,05,17,19,17.90
2010,07,05,17,20,17.90
2010,07,05,17,21,17.90
2010,07,05,17,22,18.00
2010,07,05,17,23,18.10
2010,07,05,17,24,18.10
2010,07,05,17,25,18.20
2010,07,05,17,26,18.20
2010,07,05,17,27,18.20
2010,07,05,17,28,18.30
2010,07,05,17,29,18.30
2010,07,05,17,30,18.40
2010,07,05,17,31,18.50
2010,07,05,17,32,18.60
2010,07,05,17,33,18.70
2010,07,05,17,34,18.70
2010,07,05,17,35,18.60